Time,TemperatureF,DewpointF,PressureIn,WindDirection,WindDirectionDegrees,WindSpeedMPH,WindSpeedGustMPH,Humidity,HourlyPrecipIn,Conditions,Clouds,dailyrainin,SoftwareType,DateUTC
2013-11-01 00:00:00,53.6,52.4,29.21,South,180,12.0,12.0,96,0.12,,,0.25,WUHU216HW,2013-11-01 04:00:00,
2013-11-01 00:01:00,53.7,52.3,29.21,South,180,8.0,12.0,95,0.08,,,0.00,WUHU216HW,2013-11-01 04:01:00,
2013-11-01 00:02:00,53.7,52.3,29.21,South,180,8.0,12.0,95,0.08,,,0.00,WUHU216HW,2013-11-01 04:02:00,
2013-11-01 00:07:00,53.9,52.5,29.20,South,180,9.3,12.0,95,0.08,,,0.00,WUHU216HW,2013-11-01 04:07:00,
2013-11-01 00:12:00,54.1,52.9,29.20,SSW,203,4.4,9.3,96,0.08,,,0.00,WUHU216HW,2013-11-01 04:12:00,
2013-11-01 00:17:00,54.1,52.9,29.20,SSE,158,9.8,9.8,96,0.08,,,0.00,WUHU216HW,2013-11-01 04:17:00,
2013-11-01 00:22:00,54.1,52.7,29.19,South,180,8.7,9.8,95,0.08,,,0.00,WUHU216HW,2013-11-01 04:22:00,
2013-11-01 00:27:00,54.1,52.9,29.19,South,180,14.3,14.3,96,0.08,,,0.00,WUHU216HW,2013-11-01 04:27:00,
2013-11-01 00:32:00,54.1,52.9,29.19,South,180,4.6,14.3,96,0.06,,,0.00,WUHU216HW,2013-11-01 04:32:00,
2013-11-01 00:38:00,54.1,52.9,29.19,SSE,158,2.4,14.3,96,0.00,,,0.00,WUHU216HW,2013-11-01 04:38:00,
2013-11-01 00:43:00,54.3,53.3,29.18,SSE,158,6.9,9.1,96,0.00,,,0.00,WUHU216HW,2013-11-01 04:43:00,
2013-11-01 00:48:00,55.0,53.8,29.18,WSW,248,10.7,10.7,96,0.00,,,0.00,WUHU216HW,2013-11-01 04:48:00,
2013-11-01 00:53:00,55.7,54.6,29.18,South,180,0.0,10.7,96,0.00,,,0.00,WUHU216HW,2013-11-01 04:53:00,
2013-11-01 00:58:00,56.3,54.8,29.17,SW,225,11.6,11.6,95,0.00,,,0.00,WUHU216HW,2013-11-01 04:58:00,
2013-11-01 01:03:00,56.3,54.8,29.17,SSW,203,9.6,11.6,95,0.00,,,0.00,WUHU216HW,2013-11-01 05:03:00,
2013-11-01 01:08:00,56.4,55.0,29.16,South,180,4.4,11.6,95,0.00,,,0.00,WUHU216HW,2013-11-01 05:08:00,
2013-11-01 01:13:00,56.4,55.0,29.16,SSW,203,4.2,4.4,95,0.00,,,0.00,WUHU216HW,2013-11-01 05:13:00,
2013-11-01 01:18:00,56.8,55.6,29.15,SW,225,7.3,7.3,96,0.00,,,0.00,WUHU216HW,2013-11-01 05:18:00,
2013-11-01 01:23:00,57.0,55.8,29.15,WNW,293,0.0,7.3,96,0.00,,,0.00,WUHU216HW,2013-11-01 05:23:00,
2013-11-01 01:28:00,57.0,55.8,29.15,West,270,0.0,2.9,96,0.00,,,0.00,WUHU216HW,2013-11-01 05:28:00,
2013-11-01 01:33:00,57.0,55.8,29.14,West,270,0.0,3.1,96,0.00,,,0.00,WUHU216HW,2013-11-01 05:33:00,
2013-11-01 01:39:00,57.0,55.8,29.14,SSE,158,0.0,4.9,96,0.00,,,0.00,WUHU216HW,2013-11-01 05:39:00,
2013-11-01 01:44:00,57.0,55.8,29.14,SW,225,0.0,8.2,96,0.00,,,0.00,WUHU216HW,2013-11-01 05:44:00,
2013-11-01 01:46:00,56.8,55.6,29.14,South,180,5.3,8.2,96,0.00,,,0.00,WUHU216HW,2013-11-01 05:46:00,
2013-11-01 01:51:00,56.8,55.6,29.14,South,180,9.3,9.3,96,0.00,,,0.00,WUHU216HW,2013-11-01 05:51:00,
2013-11-01 01:56:00,56.8,55.6,29.14,SSE,158,5.3,10.0,96,0.00,,,0.00,WUHU216HW,2013-11-01 05:56:00,
2013-11-01 02:01:00,56.8,55.6,29.13,SW,225,7.6,10.0,96,0.00,,,0.00,WUHU216HW,2013-11-01 06:01:00,
2013-11-01 02:06:00,56.6,55.5,29.12,WSW,248,8.5,10.2,96,0.00,,,0.00,WUHU216HW,2013-11-01 06:06:00,
2013-11-01 02:12:00,56.4,55.0,29.12,SSW,203,8.9,10.2,95,0.00,,,0.00,WUHU216HW,2013-11-01 06:12:00,
2013-11-01 02:17:00,56.4,55.0,29.12,SSW,203,2.6,8.9,95,0.00,,,0.00,WUHU216HW,2013-11-01 06:17:00,
2013-11-01 02:22:00,56.4,55.0,29.11,West,270,0.0,6.9,95,0.00,,,0.00,WUHU216HW,2013-11-01 06:22:00,
2013-11-01 02:27:00,56.4,55.0,29.11,SW,225,5.8,5.8,95,0.00,,,0.00,WUHU216HW,2013-11-01 06:27:00,
2013-11-01 02:32:00,56.4,55.0,29.11,WSW,248,7.1,7.1,95,0.00,,,0.00,WUHU216HW,2013-11-01 06:32:00,
2013-11-01 02:37:00,56.3,54.8,29.11,NW,315,0.0,7.1,95,0.00,,,0.00,WUHU216HW,2013-11-01 06:37:00,
2013-11-01 02:42:00,56.1,54.6,29.11,NW,315,0.0,4.9,95,0.00,,,0.00,WUHU216HW,2013-11-01 06:42:00,
2013-11-01 02:47:00,55.9,54.7,29.11,West,270,0.0,0.0,96,0.00,,,0.00,WUHU216HW,2013-11-01 06:47:00,
2013-11-01 02:52:00,55.7,54.6,29.11,NW,315,0.0,4.2,96,0.00,,,0.00,WUHU216HW,2013-11-01 06:52:00,
2013-11-01 02:57:00,55.5,54.4,29.10,North,0,0.0,4.2,96,0.00,,,0.00,WUHU216HW,2013-11-01 06:57:00,
2013-11-01 03:02:00,55.2,54.0,29.09,NW,315,0.0,2.9,96,0.00,,,0.00,WUHU216HW,2013-11-01 07:02:00,
2013-11-01 03:07:00,55.0,53.8,29.10,WSW,248,1.5,2.9,96,0.00,,,0.00,WUHU216HW,2013-11-01 07:07:00,
2013-11-01 03:12:00,55.0,53.8,29.10,SW,225,0.0,1.5,96,0.00,,,0.00,WUHU216HW,2013-11-01 07:12:00,
2013-11-01 03:17:00,54.6,53.5,29.11,SW,225,0.0,0.0,96,0.00,,,0.00,WUHU216HW,2013-11-01 07:17:00,
2013-11-01 03:23:00,54.6,53.5,29.11,WSW,248,2.9,2.9,96,0.00,,,0.00,WUHU216HW,2013-11-01 07:23:00,
2013-11-01 03:28:00,54.6,53.5,29.11,WNW,293,0.0,2.9,96,0.00,,,0.00,WUHU216HW,2013-11-01 07:28:00,
2013-11-01 03:33:00,54.6,53.5,29.10,SE,135,0.0,8.5,96,0.00,,,0.00,WUHU216HW,2013-11-01 07:33:00,
2013-11-01 03:38:00,54.6,53.5,29.10,NW,315,0.0,8.5,96,0.00,,,0.00,WUHU216HW,2013-11-01 07:38:00,
2013-11-01 03:43:00,54.6,53.5,29.10,SSE,158,4.2,4.2,96,0.00,,,0.00,WUHU216HW,2013-11-01 07:43:00,
2013-11-01 03:48:00,54.6,53.5,29.11,SW,225,0.0,4.2,96,0.00,,,0.00,WUHU216HW,2013-11-01 07:48:00,
2013-11-01 03:53:00,54.6,53.5,29.12,SW,225,0.0,11.1,96,0.00,,,0.00,WUHU216HW,2013-11-01 07:53:00,
2013-11-01 03:58:00,54.6,53.5,29.13,WNW,293,0.0,11.1,96,0.00,,,0.00,WUHU216HW,2013-11-01 07:58:00,
2013-11-01 04:03:00,54.6,53.5,29.13,SSW,203,0.0,9.1,96,0.00,,,0.00,WUHU216HW,2013-11-01 08:03:00,
2013-11-01 04:08:00,54.5,53.3,29.13,SSW,203,4.2,4.2,96,0.00,,,0.00,WUHU216HW,2013-11-01 08:08:00,
2013-11-01 04:13:00,54.3,53.1,29.13,South,180,3.5,4.2,96,0.00,,,0.00,WUHU216HW,2013-11-01 08:13:00,
2013-11-01 04:18:00,54.3,53.1,29.14,SSE,158,4.4,4.4,96,0.00,,,0.00,WUHU216HW,2013-11-01 08:18:00,
2013-11-01 04:23:00,54.1,52.9,29.14,NNW,338,0.0,4.6,96,0.00,,,0.00,WUHU216HW,2013-11-01 08:23:00,
2013-11-01 04:28:00,53.9,52.8,29.14,WNW,293,4.0,4.6,96,0.00,,,0.00,WUHU216HW,2013-11-01 08:28:00,
2013-11-01 04:34:00,53.7,52.6,29.15,SW,225,3.3,6.7,96,0.00,,,0.00,WUHU216HW,2013-11-01 08:34:00,
2013-11-01 04:39:00,53.4,52.2,29.15,SSW,203,3.3,8.9,96,0.00,,,0.00,WUHU216HW,2013-11-01 08:39:00,
2013-11-01 04:44:00,53.2,52.0,29.16,NW,315,0.0,8.9,96,0.00,,,0.00,WUHU216HW,2013-11-01 08:44:00,
2013-11-01 04:49:00,53.2,52.0,29.16,SW,225,0.6,7.6,96,0.00,,,0.00,WUHU216HW,2013-11-01 08:49:00,
2013-11-01 04:54:00,52.8,51.7,29.16,South,180,0.0,7.6,96,0.00,,,0.00,WUHU216HW,2013-11-01 08:54:00,
2013-11-01 04:59:00,52.7,51.5,29.17,West,270,0.0,3.5,96,0.00,,,0.00,WUHU216HW,2013-11-01 08:59:00,
2013-11-01 05:04:00,52.5,51.3,29.18,SSW,203,0.0,3.5,96,0.00,,,0.00,WUHU216HW,2013-11-01 09:04:00,
2013-11-01 05:09:00,52.3,51.1,29.18,ESE,113,0.0,2.4,96,0.00,,,0.00,WUHU216HW,2013-11-01 09:09:00,
2013-11-01 05:14:00,52.3,51.1,29.18,SSW,203,4.9,4.9,96,0.00,,,0.00,WUHU216HW,2013-11-01 09:14:00,
2013-11-01 05:19:00,51.9,50.5,29.19,NW,315,9.6,12.9,95,0.00,,,0.00,WUHU216HW,2013-11-01 09:19:00,
2013-11-01 05:24:00,51.6,50.1,29.19,SSE,158,17.0,17.0,95,0.00,,,0.00,WUHU216HW,2013-11-01 09:24:00,
2013-11-01 05:29:00,51.4,50.0,29.19,South,180,3.3,17.0,95,0.00,,,0.00,WUHU216HW,2013-11-01 09:29:00,
2013-11-01 05:34:00,51.0,49.6,29.20,SW,225,10.2,17.0,95,0.00,,,0.00,WUHU216HW,2013-11-01 09:34:00,
2013-11-01 05:39:00,50.7,49.2,29.20,ENE,68,0.6,10.2,95,0.00,,,0.00,WUHU216HW,2013-11-01 09:39:00,
2013-11-01 05:45:00,50.3,48.9,29.21,WNW,293,0.0,10.2,95,0.00,,,0.00,WUHU216HW,2013-11-01 09:45:00,
2013-11-01 05:50:00,50.1,48.7,29.21,SSE,158,0.0,7.3,95,0.00,,,0.00,WUHU216HW,2013-11-01 09:50:00,
2013-11-01 05:55:00,49.6,47.9,29.22,WSW,248,0.0,6.9,94,0.00,,,0.00,WUHU216HW,2013-11-01 09:55:00,
2013-11-01 06:00:00,49.4,47.7,29.22,SSW,203,2.2,6.0,94,0.00,,,0.00,WUHU216HW,2013-11-01 10:00:00,
2013-11-01 06:05:00,49.2,47.5,29.23,SSW,203,2.6,2.6,94,0.00,,,0.00,WUHU216HW,2013-11-01 10:05:00,
2013-11-01 06:10:00,49.1,47.4,29.23,West,270,4.6,4.6,94,0.00,,,0.00,WUHU216HW,2013-11-01 10:10:00,
2013-11-01 06:15:00,49.1,47.4,29.23,NW,315,0.0,10.2,94,0.00,,,0.00,WUHU216HW,2013-11-01 10:15:00,
2013-11-01 06:20:00,48.9,47.2,29.24,WSW,248,0.0,10.2,94,0.00,,,0.00,WUHU216HW,2013-11-01 10:20:00,
2013-11-01 06:25:00,48.9,46.9,29.24,WSW,248,2.9,8.2,93,0.00,,,0.00,WUHU216HW,2013-11-01 10:25:00,
2013-11-01 06:30:00,48.7,46.7,29.24,WNW,293,0.0,2.9,93,0.00,,,0.00,WUHU216HW,2013-11-01 10:30:00,
2013-11-01 06:35:00,48.5,46.6,29.25,NNE,23,3.3,5.8,93,0.00,,,0.00,WUHU216HW,2013-11-01 10:35:00,
2013-11-01 06:40:00,48.3,46.4,29.25,NW,315,0.0,5.8,93,0.00,,,0.00,WUHU216HW,2013-11-01 10:40:00,
2013-11-01 06:45:00,48.2,46.0,29.25,WNW,293,7.8,7.8,92,0.00,,,0.00,WUHU216HW,2013-11-01 10:45:00,
2013-11-01 06:51:00,48.2,46.0,29.26,ENE,68,4.6,7.8,92,0.00,,,0.00,WUHU216HW,2013-11-01 10:51:00,
2013-11-01 06:56:00,48.0,45.8,29.26,SSE,158,0.0,4.9,92,0.00,,,0.00,WUHU216HW,2013-11-01 10:56:00,
2013-11-01 07:01:00,48.2,46.0,29.26,SSW,203,2.4,4.6,92,0.00,,,0.00,WUHU216HW,2013-11-01 11:01:00,
2013-11-01 07:06:00,48.0,45.5,29.27,SSW,203,9.6,10.7,91,0.00,,,0.00,WUHU216HW,2013-11-01 11:06:00,
2013-11-01 07:11:00,48.0,45.5,29.27,SSW,203,5.1,10.7,91,0.00,,,0.00,WUHU216HW,2013-11-01 11:11:00,
2013-11-01 07:16:00,48.0,45.3,29.27,South,180,6.9,9.6,90,0.00,,,0.00,WUHU216HW,2013-11-01 11:16:00,
2013-11-01 07:21:00,48.0,44.9,29.28,SSE,158,0.0,6.9,89,0.00,,,0.00,WUHU216HW,2013-11-01 11:21:00,
2013-11-01 07:26:00,48.0,44.9,29.28,West,270,0.0,4.9,89,0.00,,,0.00,WUHU216HW,2013-11-01 11:26:00,
2013-11-01 07:31:00,48.0,44.9,29.28,SW,225,10.0,10.0,89,0.00,,,0.00,WUHU216HW,2013-11-01 11:31:00,
2013-11-01 07:36:00,48.0,44.9,29.29,WSW,248,0.0,10.0,89,0.00,,,0.00,WUHU216HW,2013-11-01 11:36:00,
2013-11-01 07:41:00,48.0,44.9,29.29,WSW,248,3.5,11.6,89,0.00,,,0.00,WUHU216HW,2013-11-01 11:41:00,
2013-11-01 07:46:00,48.0,44.9,29.29,ENE,68,0.0,11.6,89,0.00,,,0.00,WUHU216HW,2013-11-01 11:46:00,
2013-11-01 07:51:00,47.8,44.8,29.30,North,0,10.9,18.3,89,0.00,,,0.00,WUHU216HW,2013-11-01 11:51:00,
2013-11-01 07:56:00,47.4,44.4,29.31,North,0,3.3,18.3,89,0.00,,,0.00,WUHU216HW,2013-11-01 11:56:00,
2013-11-01 08:01:00,47.4,44.4,29.31,SSW,203,2.9,8.9,89,0.00,,,0.00,WUHU216HW,2013-11-01 12:01:00,
2013-11-01 08:07:00,47.4,44.4,29.32,WNW,293,0.8,8.9,89,0.00,,,0.00,WUHU216HW,2013-11-01 12:07:00,
2013-11-01 08:12:00,47.4,44.4,29.33,East,90,8.2,8.2,89,0.00,,,0.00,WUHU216HW,2013-11-01 12:12:00,
2013-11-01 08:17:00,47.4,44.4,29.33,SSW,203,4.6,8.2,89,0.00,,,0.00,WUHU216HW,2013-11-01 12:17:00,
2013-11-01 08:22:00,47.4,44.4,29.33,WSW,248,0.0,8.5,89,0.00,,,0.00,WUHU216HW,2013-11-01 12:22:00,
2013-11-01 08:27:00,47.3,44.2,29.34,SE,135,0.0,8.5,89,0.00,,,0.00,WUHU216HW,2013-11-01 12:27:00,
2013-11-01 08:32:00,47.3,44.2,29.35,SSW,203,4.9,4.9,89,0.00,,,0.00,WUHU216HW,2013-11-01 12:32:00,
2013-11-01 08:37:00,47.3,44.6,29.35,WNW,293,0.0,4.9,90,0.00,,,0.00,WUHU216HW,2013-11-01 12:37:00,
2013-11-01 08:42:00,47.6,44.9,29.37,SSW,203,1.7,8.0,90,0.00,,,0.00,WUHU216HW,2013-11-01 12:42:00,
2013-11-01 08:47:00,48.0,45.3,29.37,NW,315,2.9,8.0,90,0.00,,,0.00,WUHU216HW,2013-11-01 12:47:00,
2013-11-01 08:52:00,48.2,45.1,29.37,SW,225,6.2,6.2,89,0.00,,,0.00,WUHU216HW,2013-11-01 12:52:00,
2013-11-01 08:57:00,48.0,44.9,29.38,West,270,0.0,6.2,89,0.00,,,0.00,WUHU216HW,2013-11-01 12:57:00,
2013-11-01 09:02:00,48.2,45.1,29.39,West,270,1.3,4.6,89,0.00,,,0.00,WUHU216HW,2013-11-01 13:02:00,
2013-11-01 09:07:00,48.0,44.9,29.40,East,90,0.0,7.3,89,0.00,,,0.00,WUHU216HW,2013-11-01 13:07:00,
2013-11-01 09:12:00,48.0,44.9,29.40,SSW,203,0.0,7.3,89,0.00,,,0.00,WUHU216HW,2013-11-01 13:12:00,
2013-11-01 09:17:00,48.0,44.9,29.41,NW,315,4.6,4.6,89,0.00,,,0.00,WUHU216HW,2013-11-01 13:17:00,
2013-11-01 09:23:00,48.0,45.3,29.42,SSW,203,4.4,4.6,90,0.00,,,0.00,WUHU216HW,2013-11-01 13:23:00,
2013-11-01 09:28:00,48.3,45.6,29.42,NNW,338,0.8,4.4,90,0.00,,,0.00,WUHU216HW,2013-11-01 13:28:00,
2013-11-01 09:33:00,48.7,45.9,29.43,WSW,248,2.0,4.4,90,0.00,,,0.00,WUHU216HW,2013-11-01 13:33:00,
2013-11-01 09:38:00,50.1,46.9,29.43,WNW,293,0.0,2.0,89,0.00,,,0.00,WUHU216HW,2013-11-01 13:38:00,
2013-11-01 09:43:00,52.3,48.5,29.44,SSW,203,0.0,2.2,87,0.00,,,0.00,WUHU216HW,2013-11-01 13:43:00,
2013-11-01 09:48:00,54.3,49.5,29.44,NNW,338,4.6,4.6,84,0.00,,,0.00,WUHU216HW,2013-11-01 13:48:00,
2013-11-01 09:53:00,53.4,48.3,29.45,WSW,248,0.0,4.6,83,0.00,,,0.00,WUHU216HW,2013-11-01 13:53:00,
2013-11-01 09:58:00,53.2,48.2,29.45,SSW,203,4.0,4.0,83,0.00,,,0.00,WUHU216HW,2013-11-01 13:58:00,
2013-11-01 10:03:00,54.1,48.7,29.46,NW,315,0.0,4.0,82,0.00,,,0.00,WUHU216HW,2013-11-01 14:03:00,
2013-11-01 10:08:00,56.8,50.7,29.47,NW,315,0.0,2.0,80,0.00,,,0.00,WUHU216HW,2013-11-01 14:08:00,
2013-11-01 10:13:00,58.1,50.1,29.46,WSW,248,0.0,1.5,75,0.00,,,0.00,WUHU216HW,2013-11-01 14:13:00,
2013-11-01 10:18:00,57.5,49.2,29.47,NW,315,0.0,0.0,74,0.00,,,0.00,WUHU216HW,2013-11-01 14:18:00,
2013-11-01 10:23:00,55.4,47.5,29.47,NW,315,0.0,0.8,75,0.00,,,0.00,WUHU216HW,2013-11-01 14:23:00,
2013-11-01 10:28:00,53.4,46.7,29.47,NW,315,0.0,5.1,78,0.00,,,0.00,WUHU216HW,2013-11-01 14:28:00,
2013-11-01 10:34:00,52.8,46.2,29.48,West,270,0.0,5.1,78,0.00,,,0.00,WUHU216HW,2013-11-01 14:34:00,
2013-11-01 10:39:00,52.7,46.7,29.48,WNW,293,2.9,2.9,80,0.00,,,0.00,WUHU216HW,2013-11-01 14:39:00,
2013-11-01 10:44:00,52.5,46.5,29.49,SW,225,2.2,2.9,80,0.00,,,0.00,WUHU216HW,2013-11-01 14:44:00,
2013-11-01 10:49:00,52.7,46.7,29.49,South,180,0.0,2.2,80,0.00,,,0.00,WUHU216HW,2013-11-01 14:49:00,
2013-11-01 10:54:00,52.8,46.9,29.50,WNW,293,0.0,2.2,80,0.00,,,0.00,WUHU216HW,2013-11-01 14:54:00,
2013-11-01 10:59:00,53.2,47.1,29.50,NW,315,1.3,3.1,80,0.00,,,0.00,WUHU216HW,2013-11-01 14:59:00,
2013-11-01 11:04:00,53.2,46.9,29.51,SSW,203,1.5,3.1,79,0.00,,,0.00,WUHU216HW,2013-11-01 15:04:00,
2013-11-01 11:09:00,53.4,46.7,29.51,WSW,248,0.0,2.2,78,0.00,,,0.00,WUHU216HW,2013-11-01 15:09:00,
2013-11-01 11:14:00,53.2,46.5,29.51,WSW,248,0.0,1.7,78,0.00,,,0.00,WUHU216HW,2013-11-01 15:14:00,
2013-11-01 11:19:00,53.2,46.5,29.52,NNW,338,4.0,4.0,78,0.00,,,0.00,WUHU216HW,2013-11-01 15:19:00,
2013-11-01 11:24:00,52.8,46.2,29.52,West,270,0.0,7.1,78,0.00,,,0.00,WUHU216HW,2013-11-01 15:24:00,
2013-11-01 11:29:00,52.5,46.2,29.53,NW,315,0.0,7.1,79,0.00,,,0.00,WUHU216HW,2013-11-01 15:29:00,
2013-11-01 11:34:00,52.7,46.4,29.53,NW,315,0.8,0.8,79,0.00,,,0.00,WUHU216HW,2013-11-01 15:34:00,
2013-11-01 11:39:00,54.5,47.7,29.54,WSW,248,0.8,6.2,78,0.00,,,0.00,WUHU216HW,2013-11-01 15:39:00,
2013-11-01 11:44:00,56.3,48.7,29.53,SW,225,4.4,6.2,76,0.00,,,0.00,WUHU216HW,2013-11-01 15:44:00,
2013-11-01 11:50:00,56.3,47.7,29.54,NW,315,0.0,4.4,73,0.00,,,0.00,WUHU216HW,2013-11-01 15:50:00,
2013-11-01 11:55:00,54.8,46.7,29.55,WSW,248,0.0,4.4,74,0.00,,,0.00,WUHU216HW,2013-11-01 15:55:00,
2013-11-01 12:00:00,54.1,46.3,29.55,SW,225,0.0,6.4,75,0.00,,,0.00,WUHU216HW,2013-11-01 16:00:00,
2013-11-01 12:05:00,53.4,46.0,29.56,WSW,248,0.0,6.4,76,0.00,,,0.00,WUHU216HW,2013-11-01 16:05:00,
2013-11-01 12:10:00,52.7,45.6,29.56,NNW,338,0.0,6.2,77,0.00,,,0.00,WUHU216HW,2013-11-01 16:10:00,
2013-11-01 12:15:00,52.3,45.6,29.56,NNW,338,0.0,6.2,78,0.00,,,0.00,WUHU216HW,2013-11-01 16:15:00,
2013-11-01 12:20:00,52.3,46.0,29.57,West,270,2.0,2.0,79,0.00,,,0.00,WUHU216HW,2013-11-01 16:20:00,
2013-11-01 12:25:00,52.5,46.2,29.57,NE,45,0.0,2.0,79,0.00,,,0.00,WUHU216HW,2013-11-01 16:25:00,
2013-11-01 12:30:00,52.7,46.4,29.58,West,270,0.0,2.0,79,0.00,,,0.00,WUHU216HW,2013-11-01 16:30:00,
2013-11-01 12:35:00,52.7,46.4,29.58,NNW,338,0.0,0.0,79,0.00,,,0.00,WUHU216HW,2013-11-01 16:35:00,
2013-11-01 12:40:00,52.7,46.0,29.58,WNW,293,2.6,2.6,78,0.00,,,0.00,WUHU216HW,2013-11-01 16:40:00,
2013-11-01 12:45:00,52.7,46.0,29.59,WNW,293,0.0,2.6,78,0.00,,,0.00,WUHU216HW,2013-11-01 16:45:00,
2013-11-01 12:50:00,53.0,46.0,29.59,WSW,248,2.9,2.9,77,0.00,,,0.00,WUHU216HW,2013-11-01 16:50:00,
2013-11-01 12:56:00,53.2,45.8,29.59,West,270,0.0,2.9,76,0.00,,,0.00,WUHU216HW,2013-11-01 16:56:00,
2013-11-01 13:01:00,53.7,46.3,29.59,SE,135,2.4,2.9,76,0.00,,,0.00,WUHU216HW,2013-11-01 17:01:00,
2013-11-01 13:06:00,54.6,46.8,29.59,SSW,203,0.0,2.4,75,0.00,,,0.00,WUHU216HW,2013-11-01 17:06:00,
2013-11-01 13:11:00,54.6,46.5,29.59,WSW,248,9.1,9.1,74,0.00,,,0.00,WUHU216HW,2013-11-01 17:11:00,
2013-11-01 13:16:00,54.3,45.8,29.60,NNW,338,2.4,9.1,73,0.00,,,0.00,WUHU216HW,2013-11-01 17:16:00,
2013-11-01 13:21:00,53.7,45.6,29.60,West,270,8.9,8.9,74,0.00,,,0.00,WUHU216HW,2013-11-01 17:21:00,
2013-11-01 13:26:00,53.9,46.2,29.60,SW,225,0.0,8.9,75,0.00,,,0.00,WUHU216HW,2013-11-01 17:26:00,
2013-11-01 13:31:00,54.3,46.5,29.60,NW,315,0.0,0.0,75,0.00,,,0.00,WUHU216HW,2013-11-01 17:31:00,
2013-11-01 13:36:00,54.5,46.7,29.60,SE,135,0.0,0.0,75,0.00,,,0.00,WUHU216HW,2013-11-01 17:36:00,
2013-11-01 13:41:00,54.3,46.5,29.61,SSW,203,2.4,3.1,75,0.00,,,0.00,WUHU216HW,2013-11-01 17:41:00,
2013-11-01 13:46:00,53.4,46.0,29.61,WNW,293,0.0,3.1,76,0.00,,,0.00,WUHU216HW,2013-11-01 17:46:00,
2013-11-01 13:51:00,53.2,46.2,29.61,SE,135,0.0,2.4,77,0.00,,,0.00,WUHU216HW,2013-11-01 17:51:00,
2013-11-01 13:56:00,52.8,45.5,29.61,WNW,293,0.0,0.0,76,0.00,,,0.00,WUHU216HW,2013-11-01 17:56:00,
2013-11-01 14:02:00,52.3,44.6,29.61,SW,225,0.0,0.0,75,0.00,,,0.00,WUHU216HW,2013-11-01 18:02:00,
2013-11-01 14:07:00,51.9,44.6,29.62,West,270,0.0,0.0,76,0.00,,,0.00,WUHU216HW,2013-11-01 18:07:00,
2013-11-01 14:12:00,51.6,44.3,29.63,NW,315,0.8,5.1,76,0.00,,,0.00,WUHU216HW,2013-11-01 18:12:00,
2013-11-01 14:17:00,51.0,44.1,29.63,NNW,338,0.0,5.1,77,0.00,,,0.00,WUHU216HW,2013-11-01 18:17:00,
2013-11-01 14:22:00,50.9,43.9,29.63,SW,225,0.0,0.8,77,0.00,,,0.00,WUHU216HW,2013-11-01 18:22:00,
2013-11-01 14:27:00,50.3,44.0,29.63,WSW,248,0.0,4.6,79,0.00,,,0.00,WUHU216HW,2013-11-01 18:27:00,
2013-11-01 14:32:00,50.1,44.2,29.63,West,270,0.0,4.6,80,0.00,,,0.00,WUHU216HW,2013-11-01 18:32:00,
2013-11-01 14:37:00,50.1,44.8,29.63,ENE,68,0.0,0.0,82,0.00,,,0.00,WUHU216HW,2013-11-01 18:37:00,
2013-11-01 14:42:00,50.5,45.2,29.64,South,180,0.0,0.0,82,0.00,,,0.00,WUHU216HW,2013-11-01 18:42:00,
2013-11-01 14:47:00,51.2,45.9,29.64,West,270,0.0,0.0,82,0.00,,,0.00,WUHU216HW,2013-11-01 18:47:00,
2013-11-01 14:52:00,52.8,46.9,29.64,SSE,158,0.0,0.0,80,0.00,,,0.00,WUHU216HW,2013-11-01 18:52:00,
2013-11-01 14:57:00,53.2,46.9,29.64,South,180,0.0,0.0,79,0.00,,,0.00,WUHU216HW,2013-11-01 18:57:00,
2013-11-01 15:02:00,53.4,46.7,29.65,NW,315,0.0,0.0,78,0.00,,,0.00,WUHU216HW,2013-11-01 19:02:00,
2013-11-01 15:07:00,52.8,45.8,29.65,WNW,293,0.0,0.6,77,0.00,,,0.00,WUHU216HW,2013-11-01 19:07:00,
2013-11-01 15:12:00,52.8,46.2,29.65,WNW,293,0.0,0.6,78,0.00,,,0.00,WUHU216HW,2013-11-01 19:12:00,
2013-11-01 15:18:00,53.4,46.7,29.65,WSW,248,0.0,0.0,78,0.00,,,0.00,WUHU216HW,2013-11-01 19:18:00,
2013-11-01 15:23:00,53.9,46.5,29.65,North,0,0.0,0.0,76,0.00,,,0.00,WUHU216HW,2013-11-01 19:23:00,
2013-11-01 15:28:00,53.7,46.0,29.66,WSW,248,0.0,0.0,75,0.00,,,0.00,WUHU216HW,2013-11-01 19:28:00,
2013-11-01 15:33:00,53.4,45.6,29.66,WSW,248,0.0,2.4,75,0.00,,,0.00,WUHU216HW,2013-11-01 19:33:00,
2013-11-01 15:38:00,52.8,45.5,29.66,WSW,248,0.0,2.4,76,0.00,,,0.00,WUHU216HW,2013-11-01 19:38:00,
2013-11-01 15:43:00,52.7,45.3,29.66,West,270,0.0,0.0,76,0.00,,,0.00,WUHU216HW,2013-11-01 19:43:00,
2013-11-01 15:48:00,52.5,45.1,29.66,WSW,248,0.0,0.0,76,0.00,,,0.00,WUHU216HW,2013-11-01 19:48:00,
2013-11-01 15:53:00,52.3,44.9,29.67,WNW,293,0.0,0.0,76,0.00,,,0.00,WUHU216HW,2013-11-01 19:53:00,
2013-11-01 15:58:00,52.3,45.3,29.67,WSW,248,0.0,0.0,77,0.00,,,0.00,WUHU216HW,2013-11-01 19:58:00,
2013-11-01 16:03:00,52.1,45.1,29.67,WSW,248,0.0,0.0,77,0.00,,,0.00,WUHU216HW,2013-11-01 20:03:00,
2013-11-01 16:08:00,51.9,44.9,29.68,West,270,0.0,0.0,77,0.00,,,0.00,WUHU216HW,2013-11-01 20:08:00,
2013-11-01 16:13:00,51.8,45.1,29.68,West,270,0.0,0.0,78,0.00,,,0.00,WUHU216HW,2013-11-01 20:13:00,
2013-11-01 16:18:00,51.9,45.3,29.68,WSW,248,0.0,0.0,78,0.00,,,0.00,WUHU216HW,2013-11-01 20:18:00,
2013-11-01 16:23:00,51.9,45.6,29.68,NW,315,0.0,0.0,79,0.00,,,0.00,WUHU216HW,2013-11-01 20:23:00,
2013-11-01 16:29:00,51.9,45.6,29.69,SW,225,0.0,0.0,79,0.00,,,0.00,WUHU216HW,2013-11-01 20:29:00,
2013-11-01 16:34:00,51.9,45.6,29.69,SSW,203,0.0,0.0,79,0.00,,,0.00,WUHU216HW,2013-11-01 20:34:00,
2013-11-01 16:39:00,51.8,45.5,29.70,South,180,0.0,0.0,79,0.00,,,0.00,WUHU216HW,2013-11-01 20:39:00,
2013-11-01 16:44:00,51.6,45.3,29.70,WNW,293,0.0,0.0,79,0.00,,,0.00,WUHU216HW,2013-11-01 20:44:00,
2013-11-01 16:49:00,51.6,45.3,29.70,West,270,0.0,0.0,79,0.00,,,0.00,WUHU216HW,2013-11-01 20:49:00,
2013-11-01 16:54:00,51.4,45.1,29.70,WSW,248,0.0,0.0,79,0.00,,,0.00,WUHU216HW,2013-11-01 20:54:00,
2013-11-01 16:59:00,51.0,44.7,29.71,West,270,0.0,0.0,79,0.00,,,0.00,WUHU216HW,2013-11-01 20:59:00,
2013-11-01 17:04:00,50.9,44.6,29.71,WSW,248,0.0,0.0,79,0.00,,,0.00,WUHU216HW,2013-11-01 21:04:00,
2013-11-01 17:09:00,50.7,44.4,29.71,NW,315,0.0,0.0,79,0.00,,,0.00,WUHU216HW,2013-11-01 21:09:00,
2013-11-01 17:14:00,50.5,44.6,29.71,SSW,203,0.0,0.0,80,0.00,,,0.00,WUHU216HW,2013-11-01 21:14:00,
2013-11-01 17:19:00,50.5,44.6,29.71,West,270,0.0,0.0,80,0.00,,,0.00,WUHU216HW,2013-11-01 21:19:00,
2013-11-01 17:24:00,50.7,44.7,29.71,WSW,248,0.0,0.0,80,0.00,,,0.00,WUHU216HW,2013-11-01 21:24:00,
2013-11-01 17:29:00,50.7,44.7,29.71,SW,225,0.0,0.0,80,0.00,,,0.00,WUHU216HW,2013-11-01 21:29:00,
2013-11-01 17:34:00,50.5,44.6,29.72,SSW,203,0.0,0.0,80,0.00,,,0.00,WUHU216HW,2013-11-01 21:34:00,
2013-11-01 17:39:00,50.0,44.0,29.72,WNW,293,0.0,0.0,80,0.00,,,0.00,WUHU216HW,2013-11-01 21:39:00,
2013-11-01 17:45:00,49.8,43.8,29.72,NW,315,0.0,0.0,80,0.00,,,0.00,WUHU216HW,2013-11-01 21:45:00,
2013-11-01 17:50:00,49.6,43.7,29.72,WSW,248,0.0,0.0,80,0.00,,,0.00,WUHU216HW,2013-11-01 21:50:00,
2013-11-01 17:55:00,49.1,43.4,29.73,WNW,293,0.0,0.0,81,0.00,,,0.00,WUHU216HW,2013-11-01 21:55:00,
2013-11-01 18:00:00,48.9,43.2,29.73,NNW,338,0.0,0.0,81,0.00,,,0.00,WUHU216HW,2013-11-01 22:00:00,
2013-11-01 18:05:00,48.7,43.1,29.73,WSW,248,0.0,0.0,81,0.00,,,0.00,WUHU216HW,2013-11-01 22:05:00,
2013-11-01 18:10:00,48.7,43.1,29.73,SSW,203,0.0,0.0,81,0.00,,,0.00,WUHU216HW,2013-11-01 22:10:00,
2013-11-01 18:15:00,48.5,43.2,29.73,SW,225,0.0,0.0,82,0.00,,,0.00,WUHU216HW,2013-11-01 22:15:00,
2013-11-01 18:20:00,48.3,43.0,29.73,West,270,0.0,0.0,82,0.00,,,0.00,WUHU216HW,2013-11-01 22:20:00,
2013-11-01 18:25:00,48.0,42.7,29.73,WNW,293,0.0,0.0,82,0.00,,,0.00,WUHU216HW,2013-11-01 22:25:00,
2013-11-01 18:30:00,48.0,42.7,29.74,West,270,0.0,0.0,82,0.00,,,0.00,WUHU216HW,2013-11-01 22:30:00,
2013-11-01 18:35:00,47.8,42.5,29.74,West,270,0.0,0.0,82,0.00,,,0.00,WUHU216HW,2013-11-01 22:35:00,
2013-11-01 18:40:00,47.4,42.5,29.74,West,270,0.0,0.0,83,0.00,,,0.00,WUHU216HW,2013-11-01 22:40:00,
2013-11-01 18:45:00,47.4,42.5,29.74,West,270,0.0,0.0,83,0.00,,,0.00,WUHU216HW,2013-11-01 22:45:00,
2013-11-01 18:50:00,47.1,42.2,29.74,WSW,248,0.0,0.0,83,0.00,,,0.00,WUHU216HW,2013-11-01 22:50:00,
2013-11-01 18:56:00,47.1,42.2,29.74,WSW,248,0.0,0.0,83,0.00,,,0.00,WUHU216HW,2013-11-01 22:56:00,
2013-11-01 19:01:00,47.1,42.2,29.75,WSW,248,0.0,0.0,83,0.00,,,0.00,WUHU216HW,2013-11-01 23:01:00,
2013-11-01 19:06:00,47.1,42.5,29.75,WSW,248,0.0,0.0,84,0.00,,,0.00,WUHU216HW,2013-11-01 23:06:00,
2013-11-01 19:11:00,46.9,42.3,29.75,WSW,248,0.0,0.0,84,0.00,,,0.00,WUHU216HW,2013-11-01 23:11:00,
2013-11-01 19:16:00,46.9,42.3,29.75,NW,315,0.0,0.0,84,0.00,,,0.00,WUHU216HW,2013-11-01 23:16:00,
2013-11-01 19:21:00,46.7,42.1,29.75,WNW,293,0.0,0.0,84,0.00,,,0.00,WUHU216HW,2013-11-01 23:21:00,
2013-11-01 19:26:00,46.5,42.0,29.75,WNW,293,0.0,0.0,84,0.00,,,0.00,WUHU216HW,2013-11-01 23:26:00,
2013-11-01 19:31:00,46.5,42.3,29.76,WNW,293,0.0,0.0,85,0.00,,,0.00,WUHU216HW,2013-11-01 23:31:00,
2013-11-01 19:36:00,46.5,42.3,29.76,WSW,248,0.0,0.0,85,0.00,,,0.00,WUHU216HW,2013-11-01 23:36:00,
2013-11-01 19:41:00,46.2,41.9,29.76,WSW,248,0.0,0.0,85,0.00,,,0.00,WUHU216HW,2013-11-01 23:41:00,
2013-11-01 19:46:00,46.2,41.9,29.76,WSW,248,0.0,0.0,85,0.00,,,0.00,WUHU216HW,2013-11-01 23:46:00,
2013-11-01 19:51:00,46.2,41.9,29.76,WSW,248,0.0,0.0,85,0.00,,,0.00,WUHU216HW,2013-11-01 23:51:00,
2013-11-01 19:56:00,46.2,41.9,29.76,North,0,0.0,0.0,85,0.00,,,0.00,WUHU216HW,2013-11-01 23:56:00,
2013-11-01 20:02:00,46.2,41.9,29.76,North,0,0.0,0.0,85,0.00,,,0.00,WUHU216HW,2013-11-02 00:02:00,
2013-11-01 20:07:00,46.0,41.8,29.76,WSW,248,0.0,0.0,85,0.00,,,0.00,WUHU216HW,2013-11-02 00:07:00,
2013-11-01 20:12:00,46.0,42.1,29.77,WSW,248,0.0,0.0,86,0.00,,,0.00,WUHU216HW,2013-11-02 00:12:00,
2013-11-01 20:17:00,45.6,41.7,29.77,WSW,248,0.0,0.0,86,0.00,,,0.00,WUHU216HW,2013-11-02 00:17:00,
2013-11-01 20:22:00,45.6,41.7,29.77,WSW,248,0.0,0.0,86,0.00,,,0.00,WUHU216HW,2013-11-02 00:22:00,
2013-11-01 20:27:00,45.6,41.7,29.77,NW,315,0.0,0.0,86,0.00,,,0.00,WUHU216HW,2013-11-02 00:27:00,
2013-11-01 20:32:00,45.6,41.7,29.77,NW,315,0.0,0.0,86,0.00,,,0.00,WUHU216HW,2013-11-02 00:32:00,
2013-11-01 20:37:00,45.6,41.7,29.78,NW,315,0.0,0.0,86,0.00,,,0.00,WUHU216HW,2013-11-02 00:37:00,
2013-11-01 20:42:00,45.6,41.7,29.77,West,270,0.0,0.0,86,0.00,,,0.00,WUHU216HW,2013-11-02 00:42:00,
2013-11-01 20:47:00,45.6,41.7,29.77,WSW,248,0.0,0.0,86,0.00,,,0.00,WUHU216HW,2013-11-02 00:47:00,
2013-11-01 20:52:00,45.6,41.7,29.78,WSW,248,0.0,0.0,86,0.00,,,0.00,WUHU216HW,2013-11-02 00:52:00,
2013-11-01 20:57:00,45.6,41.7,29.77,WSW,248,0.0,0.0,86,0.00,,,0.00,WUHU216HW,2013-11-02 00:57:00,
2013-11-01 21:02:00,45.6,41.7,29.77,NW,315,0.0,0.0,86,0.00,,,0.00,WUHU216HW,2013-11-02 01:02:00,
2013-11-01 21:07:00,45.3,41.7,29.77,NW,315,0.0,0.0,87,0.00,,,0.00,WUHU216HW,2013-11-02 01:07:00,
2013-11-01 21:13:00,45.3,41.7,29.77,NW,315,0.0,0.0,87,0.00,,,0.00,WUHU216HW,2013-11-02 01:13:00,
2013-11-01 21:18:00,45.3,41.7,29.77,NW,315,0.0,0.0,87,0.00,,,0.00,WUHU216HW,2013-11-02 01:18:00,
2013-11-01 21:23:00,45.1,41.5,29.78,NW,315,0.0,0.0,87,0.00,,,0.00,WUHU216HW,2013-11-02 01:23:00,
2013-11-01 21:28:00,45.1,41.8,29.78,NW,315,0.0,0.0,88,0.00,,,0.00,WUHU216HW,2013-11-02 01:28:00,
2013-11-01 21:33:00,45.1,41.8,29.77,NNW,338,0.0,0.0,88,0.00,,,0.00,WUHU216HW,2013-11-02 01:33:00,
2013-11-01 21:38:00,45.1,41.8,29.78,NNW,338,0.0,0.0,88,0.00,,,0.00,WUHU216HW,2013-11-02 01:38:00,
2013-11-01 21:43:00,44.9,41.6,29.78,NW,315,0.0,0.0,88,0.00,,,0.00,WUHU216HW,2013-11-02 01:43:00,
2013-11-01 21:48:00,44.9,41.6,29.78,NNW,338,0.8,0.8,88,0.00,,,0.00,WUHU216HW,2013-11-02 01:48:00,
2013-11-01 21:53:00,44.7,41.7,29.78,North,0,0.0,0.8,89,0.00,,,0.00,WUHU216HW,2013-11-02 01:53:00,
2013-11-01 21:58:00,44.7,41.7,29.79,SSW,203,0.0,0.8,89,0.00,,,0.00,WUHU216HW,2013-11-02 01:58:00,
2013-11-01 22:03:00,44.4,41.4,29.79,WNW,293,0.0,0.0,89,0.00,,,0.00,WUHU216HW,2013-11-02 02:03:00,
2013-11-01 22:08:00,44.4,41.7,29.79,WNW,293,0.0,0.0,90,0.00,,,0.00,WUHU216HW,2013-11-02 02:08:00,
2013-11-01 22:13:00,44.2,41.5,29.79,NW,315,0.0,0.0,90,0.00,,,0.00,WUHU216HW,2013-11-02 02:13:00,
2013-11-01 22:19:00,44.2,41.5,29.79,NW,315,0.0,0.0,90,0.00,,,0.00,WUHU216HW,2013-11-02 02:19:00,
2013-11-01 22:24:00,44.0,41.3,29.79,NW,315,0.0,0.0,90,0.00,,,0.00,WUHU216HW,2013-11-02 02:24:00,
2013-11-01 22:29:00,43.8,41.1,29.79,NW,315,0.0,0.0,90,0.00,,,0.00,WUHU216HW,2013-11-02 02:29:00,
2013-11-01 22:34:00,43.8,41.1,29.79,NNW,338,0.0,0.0,90,0.00,,,0.00,WUHU216HW,2013-11-02 02:34:00,
2013-11-01 22:39:00,43.8,41.1,29.79,NW,315,0.0,0.0,90,0.00,,,0.00,WUHU216HW,2013-11-02 02:39:00,
2013-11-01 22:44:00,43.8,41.1,29.80,NW,315,0.0,0.0,90,0.00,,,0.00,WUHU216HW,2013-11-02 02:44:00,
2013-11-01 22:49:00,43.7,41.0,29.80,NW,315,0.0,0.0,90,0.00,,,0.00,WUHU216HW,2013-11-02 02:49:00,
2013-11-01 22:54:00,43.7,41.0,29.80,NW,315,0.0,0.0,90,0.00,,,0.00,WUHU216HW,2013-11-02 02:54:00,
2013-11-01 22:59:00,43.5,41.0,29.80,NW,315,0.0,0.0,91,0.00,,,0.00,WUHU216HW,2013-11-02 02:59:00,
2013-11-01 23:04:00,43.5,41.0,29.80,NW,315,0.0,0.0,91,0.00,,,0.00,WUHU216HW,2013-11-02 03:04:00,
2013-11-01 23:09:00,43.5,41.0,29.81,West,270,0.0,0.0,91,0.00,,,0.00,WUHU216HW,2013-11-02 03:09:00,
2013-11-01 23:14:00,43.5,41.0,29.80,East,90,0.0,0.0,91,0.00,,,0.00,WUHU216HW,2013-11-02 03:14:00,
2013-11-01 23:20:00,43.3,40.9,29.80,NW,315,0.0,0.0,91,0.00,,,0.00,WUHU216HW,2013-11-02 03:20:00,
2013-11-01 23:25:00,43.3,40.9,29.80,NW,315,0.0,0.0,91,0.00,,,0.00,WUHU216HW,2013-11-02 03:25:00,
2013-11-01 23:30:00,43.3,40.9,29.80,West,270,0.0,0.0,91,0.00,,,0.00,WUHU216HW,2013-11-02 03:30:00,
2013-11-01 23:35:00,43.3,40.9,29.80,NW,315,0.0,0.0,91,0.00,,,0.00,WUHU216HW,2013-11-02 03:35:00,
2013-11-01 23:40:00,43.1,40.7,29.80,WNW,293,0.0,0.0,91,0.00,,,0.00,WUHU216HW,2013-11-02 03:40:00,
2013-11-01 23:45:00,42.9,40.5,29.81,NNW,338,0.0,0.0,91,0.00,,,0.00,WUHU216HW,2013-11-02 03:45:00,
2013-11-01 23:50:00,42.9,40.5,29.81,NW,315,0.0,0.0,91,0.00,,,0.00,WUHU216HW,2013-11-02 03:50:00,
2013-11-01 23:55:00,42.9,40.5,29.81,WNW,293,0.0,0.0,91,0.00,,,0.00,WUHU216HW,2013-11-02 03:55:00,